• In Romania
  • List of Countries
  • For 7 days
  • Water Temperature
  • Satellite Maps
  • Weather Map
  • Weather Widgets
  • user-avatar
    Login

    Hourly Weather Aboleshevo

    Today, 24 April, Tuesday

    Time Temperature Precipitation Wind Pressure Humidity
    00:00 0°C° 0 mm 0 mps 742 mmHg 64%
    01:00 0°C° 0 mm 0 mps 742 mmHg 64%
    02:00 +1°C° 0 mm 1 mps 742 mmHg 64%
    03:00 +1°C° 0 mm 1 mps 742 mmHg 64%
    04:00 +1°C° 0 mm 1 mps 742 mmHg 64%
    05:00 +1°C° 0 mm 1 mps 742 mmHg 63%
    06:00 +3°C° 0 mm 1 mps 742 mmHg 58%
    07:00 +5°C° 0 mm 1 mps 741 mmHg 52%
    08:00 +6°C° 0 mm 2 mps 741 mmHg 46%
    09:00 +7°C° 0 mm 2 mps 741 mmHg 45%
    10:00 +9°C° 0 mm 2 mps 741 mmHg 43%
    11:00 +10°C° 0 mm 3 mps 740 mmHg 41%
    12:00 +11°C° 0 mm 3 mps 740 mmHg 42%
    13:00 +11°C° 0 mm 3 mps 740 mmHg 43%
    14:00 +12°C° 0 mm 3 mps 739 mmHg 45%
    15:00 +11°C° 0 mm 3 mps 739 mmHg 49%
    16:00 +11°C° 0 mm 3 mps 739 mmHg 54%
    17:00 +11°C° 0 mm 3 mps 738 mmHg 59%
    18:00 +10°C° 0.1 mm 3 mps 738 mmHg 65%
    19:00 +9°C° 0.1 mm 3 mps 738 mmHg 71%
    20:00 +8°C° 0.1 mm 3 mps 738 mmHg 76%
    21:00 +7°C° 0.1 mm 3 mps 737 mmHg 79%
    22:00 +7°C° 0.1 mm 3 mps 737 mmHg 81%
    23:00 +7°C° 0.1 mm 3 mps 737 mmHg 84%

    Tomorrow, 25 April, Wednesday

    Time Temperature Precipitation Wind Pressure Humidity
    00:00 +5°C° 0.1 mm 3 mps 737 mmHg 86%
    01:00 +5°C° 0.1 mm 3 mps 736 mmHg 89%
    02:00 +5°C° 0.1 mm 3 mps 736 mmHg 91%
    03:00 +5°C° 0.1 mm 3 mps 736 mmHg 92%
    04:00 +5°C° 0.1 mm 3 mps 736 mmHg 93%
    05:00 +5°C° 0.1 mm 3 mps 735 mmHg 94%
    06:00 +5°C° 0.2 mm 3 mps 735 mmHg 91%
    07:00 +7°C° 0.2 mm 3 mps 735 mmHg 88%
    08:00 +7°C° 0.2 mm 4 mps 735 mmHg 85%
    09:00 +8°C° 0.1 mm 4 mps 735 mmHg 80%
    10:00 +10°C° 0.1 mm 4 mps 735 mmHg 74%
    11:00 +11°C° 0.1 mm 4 mps 735 mmHg 69%
    12:00 +11°C° 0.4 mm 4 mps 735 mmHg 71%
    13:00 +10°C° 0.4 mm 4 mps 734 mmHg 73%
    14:00 +10°C° 0.4 mm 4 mps 734 mmHg 75%
    15:00 +10°C° 0.1 mm 4 mps 734 mmHg 72%
    16:00 +11°C° 0.1 mm 4 mps 734 mmHg 70%
    17:00 +11°C° 0.1 mm 3 mps 734 mmHg 68%
    18:00 +10°C° 0.1 mm 3 mps 734 mmHg 72%
    19:00 +9°C° 0.1 mm 3 mps 734 mmHg 76%
    20:00 +7°C° 0.1 mm 3 mps 734 mmHg 80%
    21:00 +7°C° 0 mm 3 mps 734 mmHg 82%
    22:00 +5°C° 0 mm 3 mps 734 mmHg 84%
    23:00 +5°C° 0 mm 3 mps 734 mmHg 86%

    Day after tomorrow, 26 April, Thursday

    Time Temperature Precipitation Wind Pressure Humidity
    00:00 +4°C° 0 mm 3 mps 734 mmHg 88%
    01:00 +4°C° 0 mm 3 mps 734 mmHg 89%
    02:00 +3°C° 0 mm 3 mps 734 mmHg 91%
    03:00 +3°C° 0 mm 3 mps 734 mmHg 91%
    04:00 +4°C° 0 mm 2 mps 734 mmHg 91%
    05:00 +4°C° 0 mm 2 mps 734 mmHg 91%
    06:00 +6°C° 0 mm 2 mps 734 mmHg 85%
    07:00 +7°C° 0 mm 3 mps 734 mmHg 80%
    08:00 +8°C° 0 mm 3 mps 734 mmHg 75%
    09:00 +9°C° 0.1 mm 3 mps 734 mmHg 71%
    10:00 +10°C° 0.1 mm 3 mps 734 mmHg 67%
    11:00 +11°C° 0.1 mm 4 mps 734 mmHg 63%
    12:00 +12°C° 0.1 mm 4 mps 734 mmHg 58%
    13:00 +12°C° 0.1 mm 4 mps 734 mmHg 54%
    14:00 +13°C° 0.1 mm 5 mps 734 mmHg 49%
    15:00 +13°C° 0 mm 4 mps 734 mmHg 49%
    16:00 +13°C° 0 mm 4 mps 735 mmHg 50%
    17:00 +13°C° 0 mm 3 mps 735 mmHg 50%
    18:00 +11°C° 0 mm 3 mps 735 mmHg 57%
    19:00 +9°C° 0 mm 3 mps 736 mmHg 63%
    20:00 +8°C° 0 mm 2 mps 736 mmHg 70%
    21:00 +7°C° 0 mm 2 mps 737 mmHg 73%
    22:00 +7°C° 0 mm 2 mps 737 mmHg 76%
    23:00 +6°C° 0 mm 2 mps 737 mmHg 79%

    27 April, Friday

    Time Temperature Precipitation Wind Pressure Humidity
    00:00 +6°C° 0 mm 2 mps 737 mmHg 81%
    01:00 +4°C° 0 mm 3 mps 737 mmHg 83%
    02:00 +4°C° 0 mm 3 mps 737 mmHg 85%
    03:00 +4°C° 0 mm 3 mps 738 mmHg 85%
    04:00 +5°C° 0 mm 2 mps 738 mmHg 86%
    05:00 +5°C° 0 mm 2 mps 738 mmHg 87%
    06:00 +5°C° 0.1 mm 3 mps 738 mmHg 82%
    07:00 +8°C° 0.1 mm 3 mps 738 mmHg 77%
    08:00 +9°C° 0.1 mm 3 mps 738 mmHg 73%
    09:00 +10°C° 0.1 mm 4 mps 738 mmHg 66%
    10:00 +11°C° 0.1 mm 4 mps 738 mmHg 59%
    11:00 +13°C° 0.1 mm 5 mps 738 mmHg 52%
    12:00 +13°C° 0.1 mm 5 mps 738 mmHg 49%
    13:00 +13°C° 0.1 mm 5 mps 738 mmHg 46%
    14:00 +14°C° 0.1 mm 5 mps 738 mmHg 43%
    15:00 +13°C° 0.1 mm 5 mps 739 mmHg 46%
    16:00 +13°C° 0.1 mm 5 mps 739 mmHg 48%
    17:00 +12°C° 0.1 mm 5 mps 739 mmHg 51%
    18:00 +11°C° 0 mm 4 mps 740 mmHg 58%
    19:00 +9°C° 0 mm 3 mps 740 mmHg 66%
    20:00 +7°C° 0 mm 2 mps 741 mmHg 73%
    21:00 +7°C° 0 mm 3 mps 741 mmHg 76%
    22:00 +5°C° 0 mm 3 mps 742 mmHg 79%
    23:00 +5°C° 0 mm 3 mps 742 mmHg 82%

    28 April, Saturday

    Time Temperature Precipitation Wind Pressure Humidity
    00:00 +4°C° 0 mm 3 mps 743 mmHg 85%
    01:00 +4°C° 0 mm 3 mps 743 mmHg 87%
    02:00 +3°C° 0 mm 3 mps 743 mmHg 89%
    03:00 +3°C° 0 mm 3 mps 744 mmHg 90%
    04:00 +3°C° 0 mm 3 mps 744 mmHg 91%
    05:00 +3°C° 0 mm 3 mps 745 mmHg 92%
    06:00 +5°C° 0 mm 3 mps 745 mmHg 83%
    07:00 +7°C° 0 mm 3 mps 745 mmHg 74%
    08:00 +8°C° 0 mm 4 mps 746 mmHg 64%
    09:00 +10°C° 0 mm 4 mps 746 mmHg 60%
    10:00 +11°C° 0 mm 4 mps 746 mmHg 55%
    11:00 +12°C° 0 mm 4 mps 746 mmHg 51%
    12:00 +13°C° 0 mm 4 mps 746 mmHg 48%
    13:00 +13°C° 0 mm 4 mps 746 mmHg 45%
    14:00 +13°C° 0 mm 4 mps 746 mmHg 43%
    15:00 +13°C° 0 mm 4 mps 746 mmHg 43%
    16:00 +13°C° 0 mm 3 mps 746 mmHg 43%
    17:00 +13°C° 0 mm 3 mps 746 mmHg 44%
    18:00 +11°C° 0 mm 3 mps 746 mmHg 49%
    19:00 +10°C° 0 mm 2 mps 746 mmHg 55%
    20:00 +8°C° 0 mm 2 mps 746 mmHg 61%
    21:00 +8°C° 0 mm 2 mps 746 mmHg 63%
    22:00 +7°C° 0 mm 2 mps 745 mmHg 66%
    23:00 +7°C° 0 mm 3 mps 745 mmHg 68%

    29 April, Sunday

    Time Temperature Precipitation Wind Pressure Humidity
    00:00 +7°C° 0.1 mm 3 mps 745 mmHg 69%
    01:00 +7°C° 0.1 mm 3 mps 745 mmHg 70%
    02:00 +7°C° 0.1 mm 4 mps 745 mmHg 71%
    03:00 +6°C° 0.6 mm 4 mps 744 mmHg 77%
    04:00 +7°C° 0.6 mm 3 mps 744 mmHg 83%
    05:00 +7°C° 0.6 mm 3 mps 744 mmHg 90%
    06:00 +8°C° 0.4 mm 3 mps 744 mmHg 89%
    07:00 +8°C° 0.4 mm 3 mps 744 mmHg 89%
    08:00 +8°C° 0.4 mm 3 mps 744 mmHg 88%
    09:00 +9°C° 0 mm 3 mps 744 mmHg 81%
    10:00 +11°C° 0 mm 3 mps 744 mmHg 73%
    11:00 +12°C° 0 mm 3 mps 744 mmHg 66%
    12:00 +13°C° 0 mm 3 mps 744 mmHg 59%
    13:00 +13°C° 0 mm 3 mps 744 mmHg 52%
    14:00 +14°C° 0 mm 3 mps 744 mmHg 45%
    15:00 +14°C° 0 mm 3 mps 744 mmHg 45%
    16:00 +14°C° 0 mm 3 mps 744 mmHg 45%
    17:00 +14°C° 0 mm 3 mps 744 mmHg 45%
    18:00 +13°C° 0 mm 2 mps 744 mmHg 51%
    19:00 +10°C° 0 mm 2 mps 745 mmHg 58%
    20:00 +9°C° 0 mm 1 mps 745 mmHg 64%
    21:00 +8°C° 0 mm 1 mps 745 mmHg 67%
    22:00 +8°C° 0 mm 1 mps 745 mmHg 69%
    23:00 +7°C° 0 mm 1 mps 746 mmHg 72%
    Show more